Regional Weather Roundup
Issued by NWS

Home | Current Version | Previous Version | Graphics & Text | Print | Product List | Glossary Off
Versions: 1 2 3 4 5 6 7 8 9 10 11 12 13 14 15 16 17 18 19 20 21 22 23 24 25 26 27 28 29 30 31 32 33 34 35 36 37 38 39 40 41 42 43 44 45 46 47 48 49 50

000
ASUS43 KLSX 272307
RWRMO

WEATHER SUMMARY FOR MISSOURI
NATIONAL WEATHER SERVICE SPRINGFIELD MO
600 PM CDT WED MAY 27 2015

NOTE: "FAIR" INDICATES FEW OR NO CLOUDS BELOW 12,000 FEET WITH NO
       SIGNIFICANT WEATHER AND/OR OBSTRUCTIONS TO VISIBILITY.
       CURRENT SKY AND/OR WEATHER CONDITIONS ARE NOT AVAILABLE FOR
       CHILLICOTHE AND FARMINGTON.

MOZ001>031-035>038-043-044-053-054-280000-
...NORTHERN AND WESTERN MISSOURI...

CITY           SKY/WX    TMP DP  RH WIND       PRES   REMARKS
KANSAS CTY INT PTSUNNY   79  57  46 S3        30.06F
KANSAS C DTWN  PTSUNNY   83  49  30 S10       30.05F
LEE`S SUMMIT   MOSUNNY   80  54  40 VRB5      30.08S
ST JOSEPH      MOSUNNY   81  50  33 SE7       30.05F
KIRKSVILLE     SUNNY     80  57  45 NW5       30.09S

$$
MOZ066>068-077>081-088>096-101>105-280000-
...SOUTHWEST MISSOURI...

CITY           SKY/WX    TMP DP  RH WIND       PRES   REMARKS
SPRINGFIELD    MOSUNNY   80  64  58 N6        30.07F
JOPLIN         PTSUNNY   81  67  62 CALM      30.05F

$$
MOZ032>034-039>042-045>050-055>058-069>072-280000-
...CENTRAL MISSOURI...

CITY           SKY/WX    TMP DP  RH WIND       PRES   REMARKS
COLUMBIA       MOSUNNY   82  55  39 CALM      30.08S
JEFFERSON CITY MOSUNNY   83  52  34 N6        30.07S
ROLLA          SUNNY     78  57  48 W5        30.08S
SEDALIA        MOSUNNY   81  55  40 E5        30.09S
WHITEMAN AFB   MOSUNNY   81  55  41 N2        30.07S
WARRENSBURG    MOSUNNY   81  54  39 CALM      30.08S
OSAGE BEACH    SUNNY     81  54  39 N3        30.08

$$
MOZ051-052-059>065-280000-
...EAST CENTRAL MISSOURI...

CITY           SKY/WX    TMP DP  RH WIND       PRES   REMARKS
ST LOUIS INTL  MOSUNNY   82  58  43 NW13      30.06F
SPIRIT OF STL  SUNNY     82  59  45 NW8       30.05F
ST CHARLES     MOSUNNY   80  59  48 NW8       30.05F

$$
MOZ072>076-082>087-097>100-106>115-280000-
...SOUTH CENTRAL AND SOUTHEAST MISSOURI...

CITY           SKY/WX    TMP DP  RH WIND       PRES   REMARKS
CAPE GIRARDEAU CLOUDY    78  70  76 S9        30.06F
FARMINGTON     CLOUDY    79  63  57 S5        30.10S
POPLAR BLUFF   PTSUNNY   80  69  69 S8        30.05F
WEST PLAINS    PTSUNNY   81  64  56 S5        30.08F

$$



USA.gov is the U.S. government's official web portal to all federal, state and local government web resources and services.